Hourly Data Report for October 06, 2013

All times are specified in Local Standard Time (LST). Add 1 hour to adjust for Daylight Saving Time where and when it is observed.

PETAWAWA AWOS 2
ONTARIO

45°57'00.000" N
77°19'00.000" W
130.10 m
6106396
71625
YWA

Download Data

Hourly Data (October 2013)
Hourly Data Report for October 6, 2013
Temp Definition
°C
Dew Point Temp Definition
°C
Rel Hum Definition
%
Wind Dir Definition
10's deg

Wind Spd Definition
km/h
Visibility Definition
km
Stn Press Definition
kPa
Hmdx Definition


Wind Chill Definition


Weather Definition


TIME
00:00 13.1 3.0 50 8 7 15.0 100.51      
01:00 12.8 2.7 50 8 11 15.0 100.45      
02:00 12.5 2.7 51 8 7 15.0 100.39      
03:00 12.4 3.1 53 7 7 15.0 100.36      
04:00 12.3 3.6 55 8 11 15.0 100.36      
05:00 12.2 5.1 62 10 13 15.0 100.29      
06:00 11.6 4.3 61 11 13 15.0 100.31      
07:00 11.3 3.6 59 11 13 15.0 100.29      
08:00 11.4 2.3 54 11 11 15.0 100.23      
09:00 11.8 3.3 56 12 13 15.0 100.17     Rain
10:00 10.2 6.2 76 12 13 14.5 100.08     Moderate Rain
11:00 9.8 7.4 85 11 11 9.7 99.99     Rain
12:00 8.9 7.8 93 12 13 4.0 99.95     Moderate Rain
13:00 8.6 7.8 95 10 11 15.0 99.84     Rain
14:00 8.9 8.4 97 14 9 15.0 99.79      
15:00 8.9 8.5 97 14 15 6.4 99.74     Rain
16:00 9.0 8.6 97 14 13 15.0 99.65     Rain
17:00 8.9 8.7 99 14 13 2.4 99.62     Moderate Rain
18:00 9.2 9.2 100 14 9 3.4 99.54     Rain
19:00 9.8 9.8 100 14 13 3.9 99.44      
20:00 9.8 9.8 100 13 13 1.0 99.40     Rain
21:00 10.4 10.4 100 13 13 11.3 99.28     Rain
22:00 11.1 11.1 100   0 4.0 99.20     Rain
23:00 11.2 11.2 100 13 7 4.8 99.20     Moderate Rain

Notes on Data Quality.

Legend

  • E = Estimated
  • M = Missing
  • NA = Not Available
  • ‡ = Partner data that is not subject to review by the National Climate Archives
Date modified: